TimePDT,TemperatureF,Dew PointF,Humidity,Sea Level PressureIn,VisibilityMPH,Wind Direction,Wind SpeedMPH,Gust SpeedMPH,PrecipitationIn,Events,Conditions,WindDirDegrees,DateUTC
12:53 AM,66.0,61.0,84,30.00,10.0,NW,4.6,-,N/A,,Clear,310,2012-10-19 07:53:00
1:53 AM,66.0,61.0,84,30.00,10.0,WNW,8.1,-,N/A,,Clear,290,2012-10-19 08:53:00
2:53 AM,66.0,61.0,84,30.01,10.0,WNW,9.2,-,N/A,,Clear,300,2012-10-19 09:53:00
3:53 AM,63.0,61.0,93,30.00,10.0,WSW,3.5,-,N/A,,Clear,240,2012-10-19 10:53:00
4:53 AM,63.0,61.0,93,30.00,10.0,WNW,10.4,-,N/A,,Clear,300,2012-10-19 11:53:00
5:43 AM,62.6,60.8,94,30.02,10.0,NW,3.5,-,N/A,,Scattered Clouds,310,2012-10-19 12:43:00
5:53 AM,63.0,61.0,93,30.01,10.0,Calm,Calm,-,N/A,,Mostly Cloudy,0,2012-10-19 12:53:00
6:53 AM,63.0,61.0,93,30.01,6.0,West,3.5,-,N/A,,Mostly Cloudy,280,2012-10-19 13:53:00
7:53 AM,64.0,61.0,90,30.03,6.0,NW,4.6,-,N/A,,Mostly Cloudy,310,2012-10-19 14:53:00
8:32 AM,64.4,60.8,88,30.04,7.0,WNW,3.5,-,N/A,,Mostly Cloudy,300,2012-10-19 15:32:00
8:53 AM,64.9,61.0,87,30.04,7.0,Calm,Calm,-,N/A,,Mostly Cloudy,0,2012-10-19 15:53:00
9:53 AM,68.0,61.0,78,30.04,10.0,West,4.6,-,N/A,,Partly Cloudy,270,2012-10-19 16:53:00
10:53 AM,73.0,61.0,66,30.02,10.0,West,5.8,-,N/A,,Clear,280,2012-10-19 17:53:00
11:53 AM,73.9,61.0,64,30.01,10.0,WNW,10.4,-,N/A,,Clear,300,2012-10-19 18:53:00
12:53 PM,75.9,60.1,58,29.99,10.0,Variable,5.8,-,N/A,,Clear,0,2012-10-19 19:53:00
1:53 PM,79.0,60.1,52,29.95,10.0,WNW,10.4,17.3,N/A,,Clear,300,2012-10-19 20:53:00
2:53 PM,78.1,60.1,54,29.94,10.0,WNW,13.8,-,N/A,,Clear,290,2012-10-19 21:53:00
3:53 PM,79.0,59.0,50,29.92,10.0,WNW,11.5,-,N/A,,Clear,290,2012-10-19 22:53:00
4:53 PM,77.0,57.9,52,29.91,10.0,WNW,15.0,-,N/A,,Clear,290,2012-10-19 23:53:00
5:53 PM,73.0,57.9,59,29.90,10.0,WNW,12.7,-,N/A,,Clear,290,2012-10-20 00:53:00
6:53 PM,66.9,57.9,73,29.91,10.0,West,5.8,-,N/A,,Clear,260,2012-10-20 01:53:00
7:53 PM,64.0,57.9,80,29.91,10.0,WNW,11.5,-,N/A,,Clear,300,2012-10-20 02:53:00
8:53 PM,60.1,57.0,90,29.91,7.0,WNW,9.2,-,N/A,,Clear,300,2012-10-20 03:53:00
9:53 PM,59.0,57.0,93,29.92,7.0,West,9.2,-,N/A,,Scattered Clouds,280,2012-10-20 04:53:00
10:04 PM,59.0,57.2,94,29.92,6.0,West,5.8,-,N/A,,Mostly Cloudy,270,2012-10-20 05:04:00
10:53 PM,59.0,55.9,90,29.93,8.0,WNW,9.2,-,N/A,,Overcast,300,2012-10-20 05:53:00
11:53 PM,59.0,55.9,90,29.93,10.0,NW,10.4,-,N/A,,Overcast,310,2012-10-20 06:53:00